Regional Weather Roundup
Issued by NWS

Home | Current Version | Previous Version | Graphics & Text | Print | Product List | Glossary On
Versions: 1 2 3 4 5 6 7 8 9 10 11 12 13 14 15 16 17 18 19 20 21 22 23 24 25 26 27 28 29 30 31 32 33 34 35 36 37 38 39 40 41 42 43 44 45 46 47 48 49 50
000
ASUS43 KLOT 271910
RWRIL

ILLINOIS REGIONAL WEATHER ROUNDUP
NATIONAL WEATHER SERVICE CHICAGO/ROMEOVILLE IL
100 PM CST THU NOV 27 2014

NOTE: "FAIR" INDICATES FEW OR NO CLOUDS BELOW 12,000 FEET WITH NO
SIGNIFICANT WEATHER AND/OR OBSTRUCTIONS TO VISIBILITY.

* THESE STATIONS ARE NOT UNDER NWS QUALITY CONTROL. THEY ALSO MAY NOT
  REPORT WEATHER SUCH AS PRECIPITATION OR FOG.

ILZ001-002-007-009-015-016-024-272000-
NORTHWEST ILLINOIS

CITY           SKY/WX    TMP DP  RH WIND       PRES   REMARKS
MOLINE         SUNNY     21   9  59 NW16      30.43S WCI   7
STERLING*      CLOUDY    25  16  68 NW12      30.38F WCI  14
SAVANNA*       CLOUDY    25  14  63 NW7       30.40S WCI  17
$$

ILZ003-004-008-010-011-017-018-272000-
NORTH CENTRAL ILLINOIS

CITY           SKY/WX    TMP DP  RH WIND       PRES   REMARKS
ROCKFORD       FLURRIES  23  15  71 NW13      30.38S WCI  11
FREEPORT*      CLOUDY    21  13  70 NW10      30.38S WCI  10
ROCHELLE*      FLURRIES  23  16  74 NW14      30.37S WCI  10
DE KALB*       FLURRIES  23  15  72 NW10      30.34F WCI  12
PERU*          CLOUDY    28  20  71 W12       30.38S WCI  18
$$

ILZ005-006-012>014-019>023-272000-
NORTHEAST ILLINOIS

CITY           SKY/WX    TMP DP  RH WIND       PRES   REMARKS
CHICAGO-OHARE  PTSUNNY   24  15  68 NW16      30.34R WCI  11
CHICAGO-MIDWAY CLOUDY    28  17  63 NW14      30.34R WCI  17
AURORA         CLOUDY    26  16  65 N13       30.35S WCI  15
LANSING*       CLOUDY    27  18  67 NW12      30.33S WCI  17
JOLIET*        FLURRIES  25  18  73 W6        30.36S WCI  18
WAUKEGAN       CLOUDY    22  14  71 NW13G20   30.33R WCI  10
DUPAGE AIRPORT CLOUDY    24  15  68 NW10      30.34S WCI  14
KANKAKEE*      CLOUDY   N/A N/A N/A NW14G22   30.36S
WHEELING       CLOUDY    24  15  68 NW14      30.35F WCI  12
MORRIS*        CLOUDY    27  20  72 NW9       30.35F WCI  18
ROMEOVILLE*    CLOUDY    26  17  69 NW13      30.35R WCI  14
NORTHERLY ISL    N/A     26  17  68 NW8         N/A  WCI  18
$$

LMZ740>746-272000-
SOUTHERN LAKE MICHIGAN

STATION/POSITION SKY/WX   TEMP    WIND        PRES    VSBY  WAVE
                          AIR SEA DIR/SP/G                  HT/PER
                          (F)     (DEG/KT/KT) (MB)    (MI)  (FT/S)
SOUTHERN BUOY              28 42  320/ 21/ 25 1026.1R         7/ 7
WAUKEGAN HARBOR            22     320/ 12/ 18   N/A
HARRISON CRIB              24     310/ 18/ 20   N/A
BURNHAM HARBOR             26     320/ 10/ 16   N/A
CALUMET HARBOR             26     280/  9/ 17 1025.8R
MICHIGAN CITY              28     280/ 22/ 25   N/A
$$

ILZ025>027-034>036-040-047-049-050-058-095>099-272000-
WEST-CENTRAL ILLINOIS

CITY           SKY/WX    TMP DP  RH WIND       PRES   REMARKS
QUINCY         MOSUNNY   24  16  71 NW12      30.47S WCI  13
GALESBURG*     MOSUNNY   20  14  77 W12       30.43S WCI   8
MACOMB*        SUNNY     21  15  79 NW17      30.48S WCI   6
JACKSONVILLE*  CLOUDY    27  19  70 W13       30.46S WCI  17
PITTSFIELD*    PTSUNNY   28  19  69 W7        30.47F WCI  20
$$

ILZ028>032-037-038-041>044-048-051>054-059>061-272000-
CENTRAL ILLINOIS

CITY           SKY/WX    TMP DP  RH WIND       PRES   REMARKS
PONTIAC        MIX PCPN  28  22  79 NW13      30.38S WCI  18
BLOOMINGTON    FLURRIES  27  21  80 NW15      30.38S WCI  15
DECATUR        CLOUDY    27  22  81 W15       30.41S HAZE    WCI  15
PEORIA         CLOUDY    25  16  68 NW12      30.42S WCI  14
LACON*         PTSUNNY   24  16  73 NW14      30.40F WCI  12
LINCOLN*       CLOUDY    27  21  79 NW8       30.44S WCI  18
SPRINGFIELD    FLURRIES  27  18  69 NW14      30.44S WCI  16
TAYLORVILLE    CLOUDY    27  21  80 W15G22    30.44R WCI  15
$$

ILZ033-039-045-046-055>057-062-063-272000-
EAST-CENTRAL ILLINOIS

CITY           SKY/WX    TMP DP  RH WIND       PRES   REMARKS
CHAMPAIGN      LGT SNOW  28  22  78 W13       30.38S WCI  17
DANVILLE*      CLOUDY    28  22  77 NW10      30.33S WCI  19
RANTOUL*       LGT SNOW  29  23  78 NW13G18   30.37S WCI  19
MATTOON        FLURRIES  27  23  85 W15       30.39S WCI  15
PARIS*         CLOUDY    29  24  79 NW12      30.38F WCI  20
$$

ILZ079-100>102-272000-
SOUTHWEST ILLINOIS

CITY           SKY/WX    TMP DP  RH WIND       PRES   REMARKS
ALTON          PTSUNNY   32  21  64 NW14      30.46S WCI  22
BELLEVILLE     CLOUDY    33  26  73 NW13      30.46R WCI  24
CAHOKIA*       PTSUNNY   33  21  61 W15       30.47S WCI  23
SPARTA*        CLOUDY    31  24  73 NW3       30.48R
$$

ILZ064>066-069>071-074>076-080>082-084>086-088>090-092>094-272000-
SOUTH-CENTRAL ILLINOIS

CITY           SKY/WX    TMP DP  RH WIND       PRES   REMARKS
CARBONDALE     CLOUDY    34  26  72 NW12      30.47F WCI  25
CAIRO*         CLOUDY    36  28  74 NW8       30.48F WCI  29
EFFINGHAM*     FLURRIES  29  20  68 W9        30.43S WCI  20
MARION         CLOUDY    32  27  80 NW12      30.47F WCI  23
MT. VERNON     CLOUDY    30  21  69 CALM      30.46S
CENTRALIA*     CLOUDY    30  22  72 NW7       30.45S WCI  23
SALEM*           N/A     32  24  71 NW8       30.44F WCI  25
METROPOLIS*    CLOUDY    33  27  77 NW6         N/A  WCI  27
$$

ILZ067-068-072-073-078-083-087-091-272000-
SOUTHEAST ILLINOIS

CITY           SKY/WX    TMP DP  RH WIND       PRES   REMARKS
LAWRENCEVILLE  CLOUDY    30  24  78 NW14      30.42F WCI  19
FLORA*         MOSUNNY   29  22  75 NW15      30.45R WCI  18
FAIRFIELD*     CLOUDY    30  25  81 W8        30.44S WCI  22
HARRISBURG*    CLOUDY    31  27  86 NW8       30.48S FOG     WCI  24
ROBINSON*      CLOUDY    30  24  78 NW15      30.42F WCI  19
CARMI*         CLOUDY    32  28  83 W12G18    30.45S WCI  23
$$

ABBREVIATIONS USED IN REMARKS
   TC - TEMPERATURE IN CELSIUS
  WCI - WIND CHILL INDEX
   HX - HEAT INDEX
  VSB - VISIBILITY
$$




USA.gov is the U.S. government's official web portal to all federal, state and local government web resources and services.